FW2445 Weather Reports


time (UTC)temp
F
wind
direction
speed
knots
gust
knots
rain 1hr
in
rain 24hr
in
rain mn
in
humidity
%
barometer
mb
20260505064532 67 347 0.0 1.7 0.00 0.00 0.00 68 1005.7
20260505063030 66 67 0.0 0.0 0.00 0.00 0.00 68 1005.8
20260505061526 64 328 0.0 0.0 0.00 0.00 0.00 68 1006.0
20260505060040 64 328 0.0 0.0 0.00 0.00 0.00 68 1006.0
20260505054522 63 26 0.0 0.0 0.00 0.00 0.00 68 1006.4
20260505053024 63 26 0.0 0.0 0.00 0.00 0.00 68 1006.5
20260505051525 63 26 0.0 0.0 0.00 0.00 0.00 68 1006.5
20260505041522 64 26 0.0 0.0 0.00 0.00 0.00 68 1006.9
20260505040017 64 26 0.0 0.0 0.00 0.00 0.00 68 1007.0
20260505034515 65 26 0.0 0.0 0.00 0.00 0.00 69 1007.1
20260505033017 65 26 0.0 0.0 0.00 0.00 0.00 69 1007.2
20260505031516 65 26 0.0 0.0 0.00 0.00 0.00 68 1007.3
20260505030016 66 26 0.0 0.0 0.00 0.00 0.00 68 1007.1
20260505024515 66 26 0.0 0.0 0.00 0.00 0.00 69 1007.0
20260505023022 66 26 0.0 0.0 0.00 0.00 0.00 68 1006.6
20260505021516 67 26 0.0 0.0 0.00 0.00 0.00 68 1006.5
20260505020014 68 26 0.0 0.0 0.00 0.00 0.00 67 1006.3
20260505014515 69 26 0.0 0.0 0.00 0.00 0.00 66 1006.2
20260505013014 70 26 0.0 0.0 0.00 0.00 0.00 66 1006.1
20260505011514 71 26 0.0 0.0 0.00 0.00 0.00 65 1005.9
20260505010013 71 26 0.0 0.0 0.00 0.00 0.00 62 1005.9
20260505004519 72 26 0.0 0.0 0.00 0.00 0.00 60 1005.9
20260505003013 73 26 0.0 0.0 0.00 0.00 0.00 58 1005.8
20260505001513 74 359 0.0 0.0 0.00 0.00 0.00 57 1006.0
20260505000020 74 56 0.0 0.0 0.00 0.00 0.00 59 1006.0
20260504234510 75 17 0.0 0.0 0.00 0.00 0.00 55 1006.2
20260504233012 75 354 0.0 0.0 0.00 0.00 0.00 53 1006.2
20260504231510 76 4 0.0 0.0 0.00 0.00 0.00 53 1006.5
20260504230008 76 4 0.0 0.0 0.00 0.00 0.00 51 1006.7
20260504224506 77 60 0.0 0.0 0.00 0.00 0.00 51 1006.9
20260504223008 78 242 0.0 0.0 0.00 0.00 0.00 50 1006.9
20260504221507 77 345 0.0 0.0 0.00 0.00 0.00 50 1007.1
20260504220005 78 323 0.0 0.0 0.00 0.00 0.00 49 1007.1
20260504214506 79 33 0.0 0.0 0.00 0.00 0.00 48 1007.3
20260504213042 79 327 0.0 0.9 0.00 0.00 0.00 48 1007.5
20260504211539 78 359 0.0 0.0 0.00 0.00 0.00 48 1007.6
20260504210018 79 354 0.0 0.0 0.00 0.00 0.00 47 1007.8
20260504204516 79 22 0.0 0.9 0.00 0.00 0.00 47 1008.1
20260504203011 79 73 0.0 0.0 0.00 0.00 0.00 45 1008.4
20260504201507 79 52 0.0 0.0 0.00 0.00 0.00 46 1008.6
20260504200047 80 45 0.0 0.0 0.00 0.00 0.00 45 1008.9
20260504194549 79 35 0.0 0.9 0.00 0.00 0.00 46 1009.1
20260504181517 77 22 0.0 0.9 0.00 0.00 0.00 48 1010.3
20260504180008 76 43 0.0 0.9 0.00 0.00 0.00 48 1010.2
20260504174505 76 341 0.0 3.5 0.00 0.00 0.00 47 1010.6
20260504173004 76 326 0.0 0.9 0.00 0.00 0.00 49 1010.9
20260504171507 76 18 0.0 1.7 0.00 0.00 0.00 48 1011.1
20260504081558 56 359 0.0 0.0 0.00 0.00 0.00 42 1012.2